Location: Nantong Television Tower
(32.0188°N, 120.8512°E)
Time: 09:04:39
(UTC+08:00)

Vanguard 3 - Visible Passes

Search period start: 26 July 2014 00:00
Search period end: 05 August 2014 00:00
Orbit: 508 x 3279 km, 33.3° (Epoch: 25 July)

Date Brightness Start Highest point End Pass type
(mag) Time Alt. Az. Time Alt. Az. Time Alt. Az.
26 Jul 8.2 02:06:05 37° ESE 02:06:05 37° ESE 02:11:10 10° E visible
26 Jul 8.1 04:10:49 11° W 04:16:39 84° N 04:27:43 10° E visible
27 Jul 7.3 03:03:02 51° WSW 03:04:33 83° SSE 03:13:04 10° E visible
28 Jul 8.4 01:55:15 32° E 01:55:15 32° E 01:59:11 10° E visible
28 Jul 7.9 04:00:00 13° W 04:05:07 81° N 04:15:18 10° E visible
29 Jul 7.0 02:52:14 65° W 02:53:06 89° N 03:00:52 10° E visible
30 Jul 8.8 01:44:29 25° E 01:44:29 25° E 01:47:17 10° E visible
30 Jul 7.7 03:49:14 16° W 03:53:37 80° N 04:02:59 10° E visible
31 Jul 6.9 02:41:31 80° NW 02:41:41 82° N 02:48:46 10° E visible
01 Aug 9.2 01:33:49 18° E 01:33:49 18° E 01:35:26 10° E visible
01 Aug 7.5 03:38:34 21° W 03:42:08 81° N 03:50:43 10° E visible
02 Aug 7.2 02:30:55 67° NE 02:30:55 67° NE 02:36:46 10° E visible
02 Aug 7.9 04:37:03 10° W 04:42:40 79° SSW 04:52:52 10° ESE visible
03 Aug 9.6 01:23:17 12° E 01:23:17 12° E 01:23:40 10° E visible
03 Aug 7.2 03:28:03 29° WNW 03:30:41 85° N 03:38:32 10° E visible
04 Aug 7.8 02:20:29 44° ENE 02:20:29 44° ENE 02:24:51 10° E visible
04 Aug 7.7 04:25:53 10° W 04:31:07 68° SSW 04:40:21 10° ESE visible
